SAS15E ENCN-ENGM

Flight info

Callsign SAS15E
Flight time 0h 41m
Altitude 29000
Route VAVET DCT PIPEX M609 RIPAM
Aircraft A321/M-SDE3FGHIRWY/LB1

Departure

Time 2026-05-08 14:28
Airport Kristiansand Airport (ENCN)

Arrival

Time 2026-05-08 15:09
Airport Oslo-Gardermoen International Airport (ENGM)
Time Latitude Longitude Altitude Speed Heading
2026-05-08 14:08 58.20280 8.07599 47 ft 0 kts 301°
2026-05-08 14:18 58.20280 8.07600 47 ft 0 kts 301°
2026-05-08 14:19 58.20274 8.07618 47 ft 2 kts 301°
2026-05-08 14:19 58.20267 8.07642 47 ft 2 kts 302°
2026-05-08 14:19 58.20257 8.07662 47 ft 2 kts 345°
2026-05-08 14:19 58.20242 8.07661 47 ft 0 kts 28°
2026-05-08 14:20 58.20237 8.07654 47 ft 1 kts 33°
2026-05-08 14:20 58.20236 8.07652 47 ft 0 kts 32°
2026-05-08 14:23 58.20241 8.07659 47 ft 2 kts 32°
2026-05-08 14:23 58.20260 8.07682 47 ft 4 kts 32°
2026-05-08 14:23 58.20296 8.07731 47 ft 8 kts 41°
2026-05-08 14:23 58.20345 8.07839 48 ft 12 kts 52°
2026-05-08 14:24 58.20408 8.07994 48 ft 16 kts 52°
2026-05-08 14:24 58.20467 8.08140 49 ft 9 kts 57°
2026-05-08 14:24 58.20467 8.08264 50 ft 10 kts 115°
2026-05-08 14:24 58.20427 8.08383 49 ft 11 kts 124°
2026-05-08 14:25 58.20421 8.08527 50 ft 12 kts 51°
2026-05-08 14:25 58.20489 8.08625 51 ft 13 kts 34°
2026-05-08 14:25 58.20572 8.08735 52 ft 15 kts 35°
2026-05-08 14:25 58.20667 8.08861 54 ft 17 kts 34°
2026-05-08 14:26 58.20774 8.09001 55 ft 19 kts 35°
2026-05-08 14:26 58.20889 8.09154 57 ft 20 kts 34°
2026-05-08 14:26 58.21006 8.09309 57 ft 20 kts 35°
2026-05-08 14:26 58.21096 8.09426 57 ft 10 kts 25°
2026-05-08 14:27 58.21154 8.09474 57 ft 8 kts 68°
2026-05-08 14:27 58.21123 8.09502 57 ft 7 kts 223°
2026-05-08 14:27 58.21091 8.09425 57 ft 7 kts 219°
2026-05-08 14:27 58.21075 8.09404 57 ft 10 kts 214°
2026-05-08 14:28 58.20755 8.08981 55 ft 100 kts 214°
2026-05-08 14:28 58.19957 8.07928 142 ft 166 kts 216°
2026-05-08 14:28 58.19024 8.06669 999 ft 169 kts 212°
2026-05-08 14:28 58.18020 8.05738 2037 ft 162 kts 198°
2026-05-08 14:29 58.16950 8.05225 2604 ft 165 kts 193°
2026-05-08 14:29 58.15807 8.04592 2970 ft 180 kts 198°
2026-05-08 14:29 58.14566 8.03767 3347 ft 197 kts 200°
2026-05-08 14:29 58.13217 8.02824 3661 ft 218 kts 200°
2026-05-08 14:30 58.11767 8.01795 4234 ft 229 kts 200°
2026-05-08 14:30 58.10243 8.00915 4734 ft 231 kts 185°
2026-05-08 14:30 58.08669 8.01550 5349 ft 240 kts 154°
2026-05-08 14:30 58.07387 8.03618 6086 ft 251 kts 128°
2026-05-08 14:31 58.06626 8.06694 6598 ft 268 kts 112°
2026-05-08 14:31 58.06079 8.10046 7281 ft 275 kts 101°
2026-05-08 14:31 58.06260 8.13648 8011 ft 285 kts 72°
2026-05-08 14:32 58.09074 8.18678 9520 ft 295 kts 19°
2026-05-08 14:32 58.11023 8.19824 10231 ft 298 kts 16°
2026-05-08 14:32 58.12992 8.21031 10912 ft 302 kts 20°
2026-05-08 14:32 58.14938 8.22617 11587 ft 305 kts 26°
2026-05-08 14:33 58.16811 8.24441 12271 ft 308 kts 28°
2026-05-08 14:33 58.18682 8.26335 12932 ft 311 kts 28°
2026-05-08 14:33 58.20599 8.28293 13587 ft 314 kts 28°
2026-05-08 14:33 58.22502 8.30240 14229 ft 317 kts 28°
2026-05-08 14:34 58.24458 8.32239 14888 ft 320 kts 28°
2026-05-08 14:34 58.26398 8.34221 15519 ft 323 kts 28°
2026-05-08 14:34 58.28382 8.36249 16124 ft 326 kts 28°
2026-05-08 14:34 58.30390 8.38303 16745 ft 329 kts 28°
2026-05-08 14:35 58.32381 8.40343 17336 ft 332 kts 28°
2026-05-08 14:35 58.34427 8.42440 17901 ft 335 kts 27°
2026-05-08 14:35 58.36467 8.44535 18465 ft 338 kts 27°
2026-05-08 14:35 58.38531 8.46654 19014 ft 341 kts 27°
2026-05-08 14:36 58.40626 8.48808 19554 ft 344 kts 27°
2026-05-08 14:36 58.42718 8.50962 20076 ft 347 kts 27°
2026-05-08 14:36 58.44841 8.53153 20598 ft 350 kts 28°
2026-05-08 14:36 58.46985 8.55369 21098 ft 353 kts 28°
2026-05-08 14:37 58.49136 8.57594 21603 ft 356 kts 28°
2026-05-08 14:37 58.51309 8.59848 22099 ft 359 kts 28°
2026-05-08 14:37 58.53500 8.62125 22596 ft 362 kts 28°
2026-05-08 14:37 58.55718 8.64431 23149 ft 362 kts 28°
2026-05-08 14:38 58.57919 8.66724 23652 ft 364 kts 29°
2026-05-08 14:38 58.60152 8.69052 24126 ft 367 kts 29°
2026-05-08 14:38 58.62384 8.71388 24590 ft 370 kts 30°
2026-05-08 14:38 58.64594 8.73950 25041 ft 373 kts 34°
2026-05-08 14:39 58.66703 8.76810 25478 ft 376 kts 38°
2026-05-08 14:39 58.68782 8.79911 25924 ft 378 kts 39°
2026-05-08 14:39 58.70832 8.83034 26346 ft 381 kts 39°
2026-05-08 14:39 58.72911 8.86209 26741 ft 385 kts 39°
2026-05-08 14:40 58.74997 8.89392 27145 ft 387 kts 39°
2026-05-08 14:40 58.77134 8.92648 27558 ft 390 kts 39°
2026-05-08 14:40 58.79258 8.95884 27954 ft 392 kts 39°
2026-05-08 14:40 58.81380 8.99119 28323 ft 395 kts 40°
2026-05-08 14:41 58.83525 9.02396 28704 ft 397 kts 40°
2026-05-08 14:41 58.85711 9.05737 29086 ft 400 kts 40°
2026-05-08 14:41 58.87893 9.09076 29203 ft 402 kts 40°
2026-05-08 14:41 58.90075 9.12423 29204 ft 403 kts 40°
2026-05-08 14:42 58.94464 9.19171 29205 ft 404 kts 40°
2026-05-08 14:42 58.98853 9.25946 29210 ft 404 kts 40°
2026-05-08 14:43 59.03229 9.32723 29210 ft 404 kts 40°
2026-05-08 14:43 59.07598 9.39513 29210 ft 404 kts 40°
2026-05-08 14:44 59.11982 9.46352 29214 ft 404 kts 40°
2026-05-08 14:44 59.16328 9.53153 29211 ft 404 kts 40°
2026-05-08 14:45 59.18528 9.56531 28992 ft 404 kts 37°
2026-05-08 14:45 59.20847 9.59699 28722 ft 403 kts 34°
2026-05-08 14:45 59.23157 9.62676 28407 ft 401 kts 33°
2026-05-08 14:45 59.25502 9.65662 28023 ft 400 kts 34°
2026-05-08 14:46 59.27811 9.68614 27547 ft 397 kts 34°
2026-05-08 14:46 59.30103 9.71553 27021 ft 396 kts 33°
2026-05-08 14:46 59.32459 9.74170 26466 ft 395 kts 26°
2026-05-08 14:46 59.35006 9.76260 25888 ft 394 kts 19°
2026-05-08 14:47 59.37593 9.77820 25334 ft 393 kts 15°
2026-05-08 14:47 59.40196 9.79238 24937 ft 387 kts 15°
2026-05-08 14:47 59.42758 9.80617 24451 ft 384 kts 15°
2026-05-08 14:47 59.45303 9.82000 23974 ft 381 kts 15°
2026-05-08 14:48 59.47857 9.83404 23503 ft 378 kts 15°
2026-05-08 14:48 59.50357 9.84790 23045 ft 375 kts 15°
2026-05-08 14:48 59.52842 9.86175 22582 ft 372 kts 15°
2026-05-08 14:48 59.55311 9.87557 22062 ft 364 kts 15°
2026-05-08 14:49 59.57722 9.88909 21648 ft 359 kts 15°
2026-05-08 14:49 59.60089 9.90240 21267 ft 354 kts 15°
2026-05-08 14:49 59.62427 9.91555 20991 ft 347 kts 15°
2026-05-08 14:49 59.64709 9.92840 20801 ft 338 kts 15°
2026-05-08 14:50 59.66941 9.94096 20550 ft 335 kts 15°
2026-05-08 14:50 59.69191 9.95352 20143 ft 334 kts 14°
2026-05-08 14:50 59.71393 9.96581 19757 ft 332 kts 14°
2026-05-08 14:50 59.73629 9.97829 19383 ft 330 kts 14°
2026-05-08 14:51 59.75818 9.99053 19006 ft 329 kts 14°
2026-05-08 14:51 59.78001 10.00277 18628 ft 327 kts 14°
2026-05-08 14:51 59.80175 10.01499 18251 ft 325 kts 14°
2026-05-08 14:51 59.82368 10.02733 17863 ft 324 kts 14°
2026-05-08 14:52 59.84530 10.03950 17477 ft 323 kts 15°
2026-05-08 14:52 59.88836 10.06383 16720 ft 321 kts 15°
2026-05-08 14:52 59.90974 10.07594 16349 ft 320 kts 14°
2026-05-08 14:53 59.93119 10.08810 15963 ft 319 kts 14°
2026-05-08 14:53 59.95245 10.10022 15566 ft 318 kts 14°
2026-05-08 14:53 59.97376 10.11243 15208 ft 317 kts 14°
2026-05-08 14:53 59.99487 10.12454 14861 ft 316 kts 14°
2026-05-08 14:54 60.01618 10.13678 14485 ft 315 kts 14°
2026-05-08 14:54 60.03719 10.14888 14106 ft 314 kts 14°
2026-05-08 14:54 60.05806 10.16091 13730 ft 313 kts 14°
2026-05-08 14:54 60.07899 10.17299 13358 ft 312 kts 14°
2026-05-08 14:55 60.09980 10.18502 12988 ft 310 kts 14°
2026-05-08 14:55 60.12056 10.19705 12612 ft 308 kts 14°
2026-05-08 14:55 60.14105 10.20893 12243 ft 306 kts 14°
2026-05-08 14:55 60.16137 10.22070 12051 ft 302 kts 14°
2026-05-08 14:56 60.18166 10.23246 11759 ft 302 kts 14°
2026-05-08 14:56 60.20182 10.24415 11386 ft 301 kts 14°
2026-05-08 14:56 60.22192 10.25582 11027 ft 300 kts 14°
2026-05-08 14:56 60.24178 10.26739 10673 ft 298 kts 14°
2026-05-08 14:57 60.26162 10.27896 10320 ft 297 kts 14°
2026-05-08 14:57 60.28141 10.29051 9965 ft 295 kts 14°
2026-05-08 14:57 60.30095 10.30194 9617 ft 294 kts 14°
2026-05-08 14:57 60.32048 10.31358 9275 ft 292 kts 17°
2026-05-08 14:58 60.33934 10.32792 9154 ft 287 kts 24°
2026-05-08 14:58 60.35545 10.35203 9017 ft 296 kts 54°
2026-05-08 14:58 60.36424 10.38930 8912 ft 294 kts 76°
2026-05-08 14:58 60.36923 10.42918 8789 ft 292 kts 79°
2026-05-08 14:59 60.37389 10.46915 8665 ft 292 kts 78°
2026-05-08 14:59 60.38448 10.54835 8416 ft 290 kts 76°
2026-05-08 14:59 60.39017 10.58704 8285 ft 290 kts 75°
2026-05-08 15:00 60.39608 10.62614 8151 ft 290 kts 75°
2026-05-08 15:00 60.40203 10.66501 8011 ft 289 kts 76°
2026-05-08 15:00 60.40802 10.70384 7833 ft 288 kts 76°
2026-05-08 15:00 60.41399 10.74265 7643 ft 287 kts 76°
2026-05-08 15:01 60.41993 10.78124 7377 ft 287 kts 76°
2026-05-08 15:01 60.42576 10.81924 7074 ft 286 kts 76°
2026-05-08 15:01 60.43165 10.85756 6757 ft 284 kts 76°
2026-05-08 15:01 60.43746 10.89564 6433 ft 282 kts 76°
2026-05-08 15:02 60.44330 10.93393 6096 ft 281 kts 76°
2026-05-08 15:02 60.44903 10.97158 5764 ft 278 kts 76°
2026-05-08 15:02 60.45464 11.00847 5609 ft 269 kts 76°
2026-05-08 15:02 60.46006 11.04409 5511 ft 257 kts 76°
2026-05-08 15:03 60.46316 11.07844 5354 ft 240 kts 101°
2026-05-08 15:03 60.45697 11.10789 5088 ft 225 kts 138°
2026-05-08 15:03 60.44537 11.12854 4812 ft 222 kts 143°
2026-05-08 15:03 60.43383 11.14926 4529 ft 222 kts 142°
2026-05-08 15:04 60.42262 11.17038 4233 ft 221 kts 141°
2026-05-08 15:04 60.41133 11.19089 3980 ft 215 kts 150°
2026-05-08 15:04 60.39751 11.19807 3958 ft 208 kts 187°
2026-05-08 15:04 60.38339 11.19122 3952 ft 207 kts 198°
2026-05-08 15:05 60.37005 11.18191 3769 ft 201 kts 199°
2026-05-08 15:05 60.35687 11.17316 3529 ft 197 kts 198°
2026-05-08 15:05 60.34411 11.16535 3344 ft 187 kts 197°
2026-05-08 15:05 60.33201 11.15829 3050 ft 174 kts 196°
2026-05-08 15:06 60.32082 11.15189 2787 ft 160 kts 196°
2026-05-08 15:06 60.31047 11.14598 2551 ft 147 kts 196°
2026-05-08 15:06 60.30114 11.14066 2358 ft 133 kts 197°
2026-05-08 15:06 60.29226 11.13557 2211 ft 131 kts 197°
2026-05-08 15:07 60.28341 11.13048 2047 ft 130 kts 197°
2026-05-08 15:07 60.27467 11.12546 1880 ft 130 kts 197°
2026-05-08 15:07 60.26600 11.12046 1715 ft 130 kts 197°
2026-05-08 15:07 60.25724 11.11543 1540 ft 129 kts 197°
2026-05-08 15:08 60.24858 11.11045 1361 ft 129 kts 198°
2026-05-08 15:08 60.24283 11.10706 1244 ft 129 kts 198°
2026-05-08 15:08 60.23133 11.10049 1015 ft 128 kts 197°
2026-05-08 15:08 60.22287 11.09564 850 ft 127 kts 197°
2026-05-08 15:09 60.21442 11.09077 700 ft 125 kts 197°
2026-05-08 15:09 60.20701 11.08643 678 ft 88 kts 196°
2026-05-08 15:09 60.20254 11.08384 676 ft 51 kts 195°
2026-05-08 15:09 60.20034 11.08288 675 ft 22 kts 182°
2026-05-08 15:10 60.19911 11.08363 675 ft 18 kts 133°
2026-05-08 15:10 60.19873 11.08591 676 ft 16 kts 105°
2026-05-08 15:10 60.19841 11.08815 677 ft 16 kts 106°
2026-05-08 15:10 60.19810 11.09026 678 ft 15 kts 106°
2026-05-08 15:11 60.19781 11.09226 679 ft 14 kts 105°
2026-05-08 15:11 60.19754 11.09421 679 ft 14 kts 106°
2026-05-08 15:11 60.19727 11.09602 679 ft 12 kts 107°
2026-05-08 15:11 60.19701 11.09763 679 ft 11 kts 109°
2026-05-08 15:12 60.19682 11.09888 679 ft 5 kts 106°
2026-05-08 15:12 60.19674 11.09945 680 ft 2 kts 106°
2026-05-08 15:12 60.19671 11.09962 680 ft 0 kts 105°